CDT,Max TemperatureF,Mean TemperatureF,Min TemperatureF,Max Dew PointF,MeanDew PointF,Min DewpointF,Max Humidity, Mean Humidity, Min Humidity, Max Sea Level PressureIn, Mean Sea Level PressureIn, Min Sea Level PressureIn, Max VisibilityMiles, Mean VisibilityMiles, Min VisibilityMiles, Max Wind SpeedMPH, Mean Wind SpeedMPH, Max Gust SpeedMPH,PrecipitationIn, CloudCover, Events, WindDirDegrees
2013-8-1,84,74,65,70,67,62,100,80,47,30.08,30.04,30.01,10,9,2,9,4,,0.00,1,,326
2013-8-2,84,72,61,72,66,61,100,83,50,30.06,30.02,29.96,10,7,0,9,2,,0.06,1,Fog-Rain,188
2013-8-3,84,76,68,74,71,68,100,89,69,30.10,30.02,29.94,10,8,2,9,2,,0.12,4,Rain-Thunderstorm,314
2013-8-4,79,70,63,69,63,57,99,76,49,30.19,30.14,30.10,10,10,3,8,3,,0.00,0,,53
2013-8-5,77,68,59,68,65,59,100,90,60,30.13,30.05,29.96,10,9,2,10,2,,0.18,5,Rain,157
2013-8-6,83,76,68,75,72,68,100,90,70,29.98,29.93,29.90,10,9,5,9,2,,0.00,4,,195
2013-8-7,84,76,68,75,72,68,100,90,63,29.96,29.92,29.88,10,7,0,12,2,,0.00,3,Fog-Rain-Thunderstorm,224
2013-8-8,82,74,65,77,72,66,100,94,78,29.99,29.94,29.89,10,6,0,9,1,14,0.09,3,Fog-Rain-Thunderstorm,217
2013-8-9,80,75,70,76,73,71,100,96,79,30.07,30.00,29.94,10,6,2,6,1,,0.24,5,Rain,337
2013-8-10,84,76,69,72,70,65,100,86,54,30.15,30.09,30.06,10,8,0,6,1,,0.00,4,Fog-Rain,8
2013-8-11,84,74,64,70,68,64,99,79,58,30.15,30.11,30.07,10,10,7,8,1,,0.00,1,,336
2013-8-12,84,76,68,76,73,68,100,93,74,30.07,30.00,29.92,10,8,2,17,2,22,0.44,4,Rain-Thunderstorm,250
2013-8-13,81,72,64,73,68,59,100,88,66,30.12,30.00,29.94,10,8,2,15,5,20,0.00,1,,333
2013-8-14,72,63,54,58,54,50,96,74,49,30.19,30.16,30.12,10,10,10,14,7,21,0.00,0,,26
2013-8-15,74,64,54,58,55,53,97,75,50,30.17,30.13,30.08,10,10,10,8,4,,0.00,0,,38
2013-8-16,76,65,54,63,59,54,98,79,55,30.14,30.12,30.09,10,10,10,9,4,,0.00,2,,30
2013-8-17,76,70,63,69,65,60,100,90,70,30.19,30.13,30.11,10,8,2,10,4,,0.17,4,Rain-Thunderstorm,34
2013-8-18,81,72,64,70,66,62,100,86,53,30.17,30.13,30.09,10,7,1,7,2,,0.03,3,Rain,89
2013-8-19,83,72,61,72,66,61,100,85,54,30.15,30.11,30.06,10,6,0,6,1,,0.00,2,Fog,147
2013-8-20,85,74,64,74,69,64,100,85,56,30.15,30.10,30.06,10,8,2,6,0,,0.00,2,,92
2013-8-21,87,76,65,74,69,65,100,83,52,30.17,30.12,30.07,10,8,0,6,1,,0.00,1,Fog,229
2013-8-22,88,76,64,78,70,64,100,83,53,30.14,30.09,30.03,10,7,0,8,1,,0.00,2,Fog,266
2013-8-23,86,77,68,76,72,68,100,85,54,30.12,30.08,30.05,10,7,0,8,2,,0.00,2,Fog,35
2013-8-24,86,75,63,72,68,63,100,80,50,30.23,30.19,30.12,10,9,5,8,2,,0.00,0,,83
2013-8-25,88,74,61,74,68,61,100,83,49,30.30,30.25,30.21,10,9,5,6,1,,0.00,1,,149
2013-8-26,88,77,66,75,72,67,100,85,60,30.27,30.20,30.12,10,6,0,12,2,,0.00,2,Fog,219
2013-8-27,89,79,69,76,73,70,100,84,60,30.14,30.09,30.03,10,8,2,9,2,17,0.00,1,,225
2013-8-28,91,78,67,74,71,67,100,78,45,30.06,30.03,30.01,10,8,2,13,2,17,0.00,0,,274
2013-8-29,93,81,69,77,73,69,100,80,48,30.05,30.01,29.97,10,9,4,12,2,,0.00,1,,287
2013-8-30,95,82,69,75,72,64,100,76,34,30.00,29.94,29.88,10,7,0,9,2,,0.00,1,Fog,249
2013-8-31,95,83,71,77,75,72,100,78,47,29.90,29.85,29.78,10,9,5,14,3,,0.00,0,,209